When you browse on this site, cookies collect data to enhance your experience and personalize the content and advertising you see.
Visit our Privacy Policy to learn more. By continuing to use the site, you agree to this use of cookies and data.
  • Em Portugal
  • Lista de países
  • Para 7 dias
  • Temperatura da água
  • Mapas de satélite
  • Mapa do tempo
  • Widgets de tempo
  • user-avatar
    Iniciar Sessão

    Previsão horária em Dobrich

    Hoje, 19 Novembro, Segunda-feira

    Tempo Temperatura Precipitação Vento Pressão Humidade
    00:00 0°C° 1.6 mm 7 m/s 739 mmHg 90%
    01:00 +2°C° 1.6 mm 7 m/s 738 mmHg 91%
    02:00 +3°C° 0 mm 7 m/s 737 mmHg 94%
    03:00 +3°C° 2.2 mm 7 m/s 737 mmHg 94%
    04:00 +4°C° 2.2 mm 6 m/s 736 mmHg 95%
    05:00 +4°C° 2.2 mm 6 m/s 735 mmHg 96%
    06:00 +6°C° 1.3 mm 5 m/s 735 mmHg 96%
    07:00 +6°C° 1.3 mm 5 m/s 734 mmHg 97%
    08:00 +6°C° 0 mm 4 m/s 734 mmHg 97%
    09:00 +6°C° 0.1 mm 5 m/s 734 mmHg 93%
    10:00 +5°C° 0.1 mm 5 m/s 734 mmHg 90%
    11:00 +4°C° 0.1 mm 6 m/s 735 mmHg 87%
    12:00 +3°C° 0 mm 6 m/s 735 mmHg 84%
    13:00 +3°C° 0 mm 6 m/s 736 mmHg 81%
    14:00 +3°C° 0 mm 7 m/s 736 mmHg 79%
    15:00 +2°C° 0 mm 7 m/s 737 mmHg 81%
    16:00 +2°C° 0 mm 6 m/s 737 mmHg 83%
    17:00 +1°C° 0 mm 6 m/s 738 mmHg 85%
    18:00 +1°C° 0 mm 6 m/s 738 mmHg 86%
    19:00 -1°C° 0 mm 6 m/s 739 mmHg 87%
    20:00 0°C° 0 mm 5 m/s 739 mmHg 88%
    21:00 0°C° 0 mm 5 m/s 740 mmHg 89%
    22:00 0°C° 0 mm 5 m/s 741 mmHg 90%
    23:00 0°C° 0 mm 4 m/s 741 mmHg 90%

    Amanhã, 20 Novembro, Terça-feira

    Tempo Temperatura Precipitação Vento Pressão Humidade
    00:00 0°C° 0 mm 4 m/s 742 mmHg 90%
    01:00 -1°C° 0 mm 4 m/s 742 mmHg 90%
    02:00 -1°C° 0 mm 4 m/s 742 mmHg 90%
    03:00 -1°C° 0 mm 4 m/s 742 mmHg 89%
    04:00 -1°C° 0 mm 4 m/s 743 mmHg 89%
    05:00 -1°C° 0 mm 4 m/s 743 mmHg 89%
    06:00 0°C° 0 mm 3 m/s 743 mmHg 88%
    07:00 -1°C° 0 mm 3 m/s 743 mmHg 88%
    08:00 -1°C° 0 mm 3 m/s 744 mmHg 87%
    09:00 0°C° 0 mm 3 m/s 744 mmHg 81%
    10:00 +2°C° 0 mm 3 m/s 744 mmHg 75%
    11:00 +3°C° 0 mm 3 m/s 744 mmHg 69%
    12:00 +3°C° 0 mm 3 m/s 744 mmHg 67%
    13:00 +4°C° 0 mm 3 m/s 744 mmHg 65%
    14:00 +5°C° 0 mm 3 m/s 743 mmHg 63%
    15:00 +5°C° 0 mm 3 m/s 743 mmHg 66%
    16:00 +4°C° 0 mm 3 m/s 743 mmHg 69%
    17:00 +4°C° 0 mm 4 m/s 743 mmHg 73%
    18:00 +4°C° 0.1 mm 4 m/s 743 mmHg 76%
    19:00 +4°C° 0.1 mm 4 m/s 743 mmHg 79%
    20:00 +4°C° 0.1 mm 4 m/s 742 mmHg 81%
    21:00 +4°C° 0.5 mm 4 m/s 742 mmHg 84%
    22:00 +4°C° 0.5 mm 4 m/s 742 mmHg 86%
    23:00 +5°C° 0.5 mm 5 m/s 742 mmHg 89%

    Depois de amanhã, 21 Novembro, Quarta-feira

    Tempo Temperatura Precipitação Vento Pressão Humidade
    00:00 +5°C° 0.8 mm 5 m/s 742 mmHg 90%
    01:00 +5°C° 0.8 mm 5 m/s 741 mmHg 91%
    02:00 +5°C° 0.8 mm 5 m/s 741 mmHg 92%
    03:00 +5°C° 0.9 mm 5 m/s 741 mmHg 92%
    04:00 +4°C° 0.9 mm 6 m/s 740 mmHg 93%
    05:00 +4°C° 0.9 mm 6 m/s 740 mmHg 93%
    06:00 +5°C° 0.9 mm 6 m/s 740 mmHg 93%
    07:00 +5°C° 0.9 mm 6 m/s 740 mmHg 93%
    08:00 +5°C° 0.9 mm 6 m/s 740 mmHg 93%
    09:00 +5°C° 1.2 mm 6 m/s 740 mmHg 92%
    10:00 +5°C° 1.2 mm 7 m/s 740 mmHg 92%
    11:00 +5°C° 1.2 mm 7 m/s 740 mmHg 92%
    12:00 +5°C° 1.2 mm 7 m/s 740 mmHg 91%
    13:00 +5°C° 1.2 mm 7 m/s 739 mmHg 91%
    14:00 +5°C° 1.2 mm 7 m/s 739 mmHg 90%
    15:00 +5°C° 0.6 mm 7 m/s 739 mmHg 90%
    16:00 +5°C° 0.6 mm 8 m/s 739 mmHg 89%
    17:00 +5°C° 0.6 mm 8 m/s 739 mmHg 89%
    18:00 +5°C° 0.6 mm 8 m/s 740 mmHg 88%
    19:00 +4°C° 0.6 mm 8 m/s 740 mmHg 88%
    20:00 +4°C° 0.6 mm 8 m/s 740 mmHg 87%
    21:00 +4°C° 0.6 mm 8 m/s 741 mmHg 87%
    22:00 +4°C° 0.6 mm 8 m/s 741 mmHg 87%
    23:00 +4°C° 0.6 mm 8 m/s 741 mmHg 87%

    22 Novembro, Quinta-feira

    Tempo Temperatura Precipitação Vento Pressão Humidade
    00:00 +2°C° 0.6 mm 8 m/s 741 mmHg 86%
    01:00 +2°C° 0.6 mm 8 m/s 742 mmHg 86%
    02:00 +2°C° 0.6 mm 8 m/s 742 mmHg 86%
    03:00 +2°C° 0.2 mm 8 m/s 742 mmHg 85%
    04:00 +1°C° 0.2 mm 8 m/s 742 mmHg 85%
    05:00 +1°C° 0.2 mm 8 m/s 742 mmHg 84%
    06:00 +2°C° 0.1 mm 7 m/s 743 mmHg 84%
    07:00 0°C° 0.1 mm 7 m/s 743 mmHg 83%
    08:00 0°C° 0.1 mm 7 m/s 744 mmHg 83%
    09:00 0°C° 0 mm 7 m/s 744 mmHg 81%
    10:00 +1°C° 0 mm 6 m/s 745 mmHg 79%
    11:00 +2°C° 0 mm 6 m/s 745 mmHg 77%
    12:00 +2°C° 0 mm 6 m/s 745 mmHg 74%
    13:00 +2°C° 0 mm 6 m/s 745 mmHg 71%
    14:00 +2°C° 0 mm 6 m/s 745 mmHg 69%
    15:00 +2°C° 0 mm 5 m/s 745 mmHg 69%
    16:00 +1°C° 0 mm 5 m/s 745 mmHg 70%
    17:00 +1°C° 0 mm 4 m/s 745 mmHg 70%
    18:00 0°C° 0 mm 4 m/s 746 mmHg 71%
    19:00 0°C° 0 mm 4 m/s 746 mmHg 71%
    20:00 -1°C° 0 mm 4 m/s 746 mmHg 72%
    21:00 -1°C° 0 mm 4 m/s 746 mmHg 73%
    22:00 -2°C° 0 mm 4 m/s 747 mmHg 75%
    23:00 -2°C° 0 mm 4 m/s 747 mmHg 77%

    23 Novembro, Sexta-feira

    Tempo Temperatura Precipitação Vento Pressão Humidade
    00:00 -3°C° 0 mm 4 m/s 747 mmHg 78%
    01:00 -3°C° 0 mm 4 m/s 747 mmHg 79%
    02:00 -3°C° 0 mm 4 m/s 747 mmHg 80%
    03:00 -3°C° 0 mm 4 m/s 747 mmHg 81%
    04:00 -4°C° 0 mm 4 m/s 747 mmHg 81%
    05:00 -4°C° 0 mm 4 m/s 747 mmHg 82%
    06:00 -4°C° 0 mm 4 m/s 748 mmHg 82%
    07:00 -4°C° 0 mm 4 m/s 748 mmHg 82%
    08:00 -4°C° 0 mm 3 m/s 749 mmHg 82%
    09:00 -2°C° 0 mm 4 m/s 749 mmHg 76%
    10:00 -1°C° 0 mm 4 m/s 749 mmHg 70%
    11:00 0°C° 0 mm 4 m/s 750 mmHg 64%
    12:00 +1°C° 0 mm 4 m/s 749 mmHg 61%
    13:00 +1°C° 0 mm 4 m/s 749 mmHg 59%
    14:00 +3°C° 0 mm 4 m/s 749 mmHg 57%
    15:00 +1°C° 0 mm 4 m/s 749 mmHg 60%
    16:00 0°C° 0 mm 4 m/s 749 mmHg 64%
    17:00 0°C° 0 mm 3 m/s 749 mmHg 67%
    18:00 -1°C° 0 mm 3 m/s 750 mmHg 69%
    19:00 -1°C° 0 mm 3 m/s 750 mmHg 70%
    20:00 -1°C° 0 mm 3 m/s 750 mmHg 71%
    21:00 -2°C° 0 mm 3 m/s 750 mmHg 70%
    22:00 -2°C° 0 mm 3 m/s 750 mmHg 70%
    23:00 -2°C° 0 mm 3 m/s 750 mmHg 69%

    24 Novembro, Sábado

    Tempo Temperatura Precipitação Vento Pressão Humidade
    00:00 -2°C° 0 mm 3 m/s 750 mmHg 69%
    01:00 -2°C° 0 mm 3 m/s 750 mmHg 69%
    02:00 -2°C° 0 mm 3 m/s 750 mmHg 69%
    03:00 -2°C° 0 mm 3 m/s 749 mmHg 70%
    04:00 -2°C° 0 mm 3 m/s 749 mmHg 70%
    05:00 -4°C° 0 mm 3 m/s 749 mmHg 71%
    06:00 -2°C° 0 mm 3 m/s 749 mmHg 70%
    07:00 -2°C° 0 mm 2 m/s 749 mmHg 70%
    08:00 -2°C° 0 mm 2 m/s 749 mmHg 69%
    09:00 -1°C° 0 mm 2 m/s 749 mmHg 65%
    10:00 +2°C° 0 mm 2 m/s 749 mmHg 60%
    11:00 +3°C° 0 mm 2 m/s 749 mmHg 56%
    12:00 +4°C° 0 mm 2 m/s 749 mmHg 55%
    13:00 +5°C° 0 mm 2 m/s 748 mmHg 54%
    14:00 +5°C° 0 mm 2 m/s 748 mmHg 53%
    15:00 +4°C° 0 mm 2 m/s 748 mmHg 56%
    16:00 +4°C° 0 mm 1 m/s 747 mmHg 60%
    17:00 +3°C° 0 mm 1 m/s 747 mmHg 64%
    18:00 +3°C° 0 mm 1 m/s 747 mmHg 65%
    19:00 +3°C° 0 mm 1 m/s 747 mmHg 67%
    20:00 +2°C° 0 mm 1 m/s 747 mmHg 69%
    21:00 +2°C° 0 mm 1 m/s 747 mmHg 70%
    22:00 +2°C° 0 mm 1 m/s 747 mmHg 72%
    23:00 +2°C° 0 mm 1 m/s 746 mmHg 74%
    Mostrar mais